Location: Feydey
(46.3431°N, 7.0106°E)
Time: 19:39:53
(UTC+00:00)

Cosmos 1328 - Pass Details

Date: 19 October 2021
Orbit: 529 x 552 km, 82.5° (Epoch: 03 December)

Event Time Altitude Azimuth Distance (km) Brightness Sun altitude
Rises 17:54:48 0° 353° (N) 2,731 7.5 -13.9°
Reaches altitude 10° 17:56:59 10° 357° (N) 1,835 6.5 -14.3°
Maximum altitude 18:01:00 65° 79° (E) 611 3.7 -15.0°
Drops below altitude 10° 18:05:00 10° 162° (SSE) 1,826 6.3 -15.7°
Sets 18:07:10 0° 165° (SSE) 2,715 7.2 -16.1°
